| time (UTC) | temp C | wind direction | speed KPH | gust KPH | rain 1hr cm | rain 24hr cm | rain mn cm | humidity % | barometer mb |
| 20260508064536 | 11 | 51 | 0.0 | 0.0 | 0.00 | 0.10 | 0.03 | 81 | 1012.4 |
| 20260508063046 | 11 | 51 | 0.0 | 0.0 | 0.00 | 0.10 | 0.03 | 80 | 1012.3 |
| 20260508061533 | 11 | 51 | 0.0 | 1.6 | 0.03 | 0.10 | 0.03 | 80 | 1012.3 |
| 20260508060035 | 11 | 51 | 0.0 | 3.2 | 0.03 | 0.10 | 0.03 | 81 | 1012.3 |
| 20260508054531 | 11 | 51 | 0.0 | 3.2 | 0.03 | 0.10 | 0.03 | 81 | 1012.2 |
| 20260508053028 | 11 | 51 | 0.0 | 0.0 | 0.03 | 0.10 | 0.03 | 81 | 1012.3 |
| 20260508051532 | 11 | 51 | 0.0 | 0.0 | 0.00 | 0.08 | 0.00 | 80 | 1012.2 |
| 20260508050024 | 11 | 51 | 0.0 | 0.0 | 0.00 | 0.08 | 0.00 | 80 | 1012.2 |
| 20260508044527 | 12 | 51 | 0.0 | 0.0 | 0.00 | 0.08 | 0.00 | 81 | 1012.1 |
| 20260508043023 | 12 | 51 | 0.0 | 0.0 | 0.00 | 0.08 | 0.00 | 81 | 1012.0 |
| 20260508041521 | 12 | 51 | 0.0 | 3.2 | 0.00 | 0.08 | 0.00 | 80 | 1012.1 |
| 20260508040020 | 12 | 51 | 0.0 | 1.6 | 0.00 | 0.08 | 0.08 | 81 | 1012.0 |
| 20260508034519 | 12 | 51 | 0.0 | 3.2 | 0.00 | 0.08 | 0.08 | 81 | 1011.9 |
| 20260508033021 | 12 | 51 | 0.0 | 4.8 | 0.00 | 0.08 | 0.08 | 81 | 1011.5 |
| 20260508031518 | 12 | 51 | 0.0 | 3.2 | 0.00 | 0.08 | 0.08 | 80 | 1011.3 |
| 20260508030017 | 12 | 51 | 0.0 | 0.0 | 0.00 | 0.08 | 0.08 | 80 | 1011.3 |
| 20260508024531 | 12 | 51 | 0.0 | 0.0 | 0.00 | 0.08 | 0.08 | 80 | 1011.1 |
| 20260508023023 | 12 | 51 | 0.0 | 0.0 | 0.00 | 0.08 | 0.08 | 80 | 1010.9 |
| 20260508021515 | 12 | 51 | 0.0 | 0.0 | 0.00 | 0.08 | 0.08 | 80 | 1010.8 |
| 20260508020014 | 12 | 54 | 0.0 | 1.6 | 0.00 | 0.08 | 0.08 | 79 | 1010.5 |
| 20260508014513 | 12 | 54 | 0.0 | 3.2 | 0.00 | 0.08 | 0.08 | 79 | 1010.5 |
| 20260508013012 | 12 | 54 | 0.0 | 0.0 | 0.00 | 0.08 | 0.08 | 79 | 1010.3 |
| 20260508011511 | 12 | 53 | 0.0 | 4.8 | 0.00 | 0.08 | 0.08 | 79 | 1009.9 |
| 20260508010012 | 12 | 57 | 1.6 | 4.8 | 0.00 | 0.08 | 0.08 | 78 | 1009.7 |
| 20260508004509 | 12 | 57 | 0.0 | 3.2 | 0.00 | 0.08 | 0.08 | 77 | 1009.8 |
| 20260508003010 | 12 | 57 | 0.0 | 4.8 | 0.03 | 0.08 | 0.08 | 76 | 1009.8 |
| 20260508001508 | 12 | 55 | 1.6 | 6.4 | 0.03 | 0.08 | 0.08 | 75 | 1010.1 |
| 20260508000008 | 12 | 67 | 0.0 | 4.8 | 0.03 | 0.08 | 0.08 | 74 | 1009.2 |
| 20260507234510 | 12 | 65 | 1.6 | 9.7 | 0.03 | 0.08 | 0.08 | 74 | 1008.4 |
| 20260507233015 | 12 | 33 | 3.2 | 11.3 | 0.00 | 0.05 | 0.05 | 74 | 1008.8 |
| 20260507231505 | 12 | 99 | 3.2 | 17.7 | 0.00 | 0.05 | 0.05 | 74 | 1008.8 |
| 20260507230006 | 12 | 13 | 4.8 | 14.5 | 0.00 | 0.05 | 0.05 | 74 | 1008.4 |
| 20260507224506 | 12 | 49 | 6.4 | 16.1 | 0.00 | 0.05 | 0.05 | 74 | 1008.4 |
| 20260507223004 | 13 | 69 | 8.0 | 12.9 | 0.00 | 0.05 | 0.05 | 73 | 1008.1 |
| 20260507221507 | 12 | 24 | 4.8 | 11.3 | 0.00 | 0.05 | 0.05 | 74 | 1008.0 |
| 20260507220004 | 12 | 43 | 6.4 | 12.9 | 0.00 | 0.05 | 0.05 | 74 | 1008.1 |
| 20260507214502 | 12 | 67 | 3.2 | 19.3 | 0.00 | 0.05 | 0.05 | 75 | 1008.3 |
| 20260507213000 | 12 | 10 | 9.7 | 20.9 | 0.00 | 0.05 | 0.05 | 75 | 1007.8 |
| 20260507211614 | 12 | 325 | 12.9 | 22.5 | 0.00 | 0.05 | 0.05 | 75 | 1007.9 |
| 20260507204555 | 13 | 61 | 14.5 | 25.7 | 0.00 | 0.05 | 0.05 | 75 | 1007.3 |
| 20260507203105 | 13 | 32 | 11.3 | 19.3 | 0.00 | 0.05 | 0.05 | 78 | 1007.2 |
| 20260507201559 | 13 | 355 | 8.0 | 19.3 | 0.00 | 0.05 | 0.05 | 78 | 1007.2 |
| 20260507200105 | 13 | 22 | 6.4 | 16.1 | 0.00 | 0.05 | 0.05 | 78 | 1007.2 |
| 20260507194548 | 14 | 34 | 6.4 | 19.3 | 0.00 | 0.05 | 0.05 | 79 | 1007.0 |
| 20260507193049 | 14 | 60 | 8.0 | 17.7 | 0.00 | 0.05 | 0.05 | 78 | 1007.0 |
| 20260507191544 | 14 | 351 | 9.7 | 20.9 | 0.00 | 0.05 | 0.05 | 76 | 1006.8 |
| 20260507190041 | 15 | 24 | 4.8 | 22.5 | 0.03 | 0.05 | 0.05 | 76 | 1007.1 |
| 20260507184536 | 16 | 17 | 11.3 | 20.9 | 0.03 | 0.05 | 0.05 | 75 | 1006.0 |
| 20260507183034 | 17 | 46 | 6.4 | 17.7 | 0.03 | 0.05 | 0.05 | 74 | 1006.6 |
| 20260507181532 | 19 | 47 | 8.0 | 19.3 | 0.03 | 0.05 | 0.05 | 72 | 1005.8 |
| 20260507180034 | 21 | 211 | 3.2 | 9.7 | 0.00 | 0.03 | 0.03 | 73 | 1006.0 |
| 20260507174526 | 21 | 213 | 3.2 | 8.0 | 0.00 | 0.03 | 0.03 | 73 | 1006.7 |
| 20260507173031 | 21 | 232 | 4.8 | 9.7 | 0.00 | 0.03 | 0.03 | 74 | 1006.5 |
| 20260507171523 | 21 | 198 | 1.6 | 9.7 | 0.00 | 0.03 | 0.03 | 75 | 1006.2 |
| 20260507170022 | 20 | 207 | 3.2 | 6.4 | 0.00 | 0.03 | 0.03 | 77 | 1006.1 |
| 20260507164524 | 20 | 194 | 1.6 | 8.0 | 0.00 | 0.03 | 0.03 | 79 | 1006.4 |
| 20260507163016 | 20 | 238 | 3.2 | 11.3 | 0.00 | 0.03 | 0.03 | 79 | 1007.0 |
| 20260507161519 | 20 | 229 | 4.8 | 9.7 | 0.00 | 0.03 | 0.03 | 79 | 1007.5 |
| 20260507160016 | 20 | 254 | 6.4 | 14.5 | 0.00 | 0.03 | 0.03 | 79 | 1007.8 |
| 20260507154515 | 20 | 260 | 4.8 | 9.7 | 0.00 | 0.03 | 0.03 | 80 | 1007.5 |
| 20260507153014 | 20 | 242 | 1.6 | 6.4 | 0.00 | 0.03 | 0.03 | 80 | 1006.9 |
| 20260507151514 | 19 | 233 | 1.6 | 9.7 | 0.03 | 0.03 | 0.03 | 81 | 1007.2 |
| 20260507150021 | 19 | 219 | 4.8 | 11.3 | 0.03 | 0.03 | 0.03 | 80 | 1007.5 |
| 20260507144520 | 19 | 231 | 6.4 | 17.7 | 0.03 | 0.03 | 0.03 | 81 | 1007.9 |
| 20260507143009 | 19 | 198 | 6.4 | 22.5 | 0.03 | 0.03 | 0.03 | 80 | 1007.9 |
| 20260507141507 | 19 | 209 | 4.8 | 12.9 | 0.00 | 0.00 | 0.00 | 80 | 1008.1 |
| 20260507140008 | 19 | 229 | 4.8 | 11.3 | 0.00 | 0.00 | 0.00 | 80 | 1008.2 |
| 20260507134510 | 19 | 240 | 4.8 | 8.0 | 0.00 | 0.00 | 0.00 | 80 | 1008.1 |
| 20260507133005 | 19 | 229 | 3.2 | 9.7 | 0.00 | 0.00 | 0.00 | 80 | 1008.1 |
| 20260507131506 | 19 | 227 | 3.2 | 8.0 | 0.00 | 0.00 | 0.00 | 80 | 1008.2 |
| 20260507130005 | 19 | 230 | 3.2 | 8.0 | 0.00 | 0.00 | 0.00 | 81 | 1008.0 |
| 20260507124505 | 19 | 220 | 3.2 | 12.9 | 0.00 | 0.00 | 0.00 | 81 | 1008.0 |
| 20260507123007 | 19 | 196 | 4.8 | 11.3 | 0.00 | 0.00 | 0.00 | 81 | 1008.1 |
| 20260507121502 | 18 | 210 | 3.2 | 12.9 | 0.00 | 0.00 | 0.00 | 81 | 1008.2 |
| 20260507120002 | 18 | 209 | 1.6 | 11.3 | 0.00 | 0.00 | 0.00 | 81 | 1008.5 |
| 20260507114501 | 18 | 231 | 3.2 | 11.3 | 0.00 | 0.00 | 0.00 | 81 | 1008.5 |
| 20260507113002 | 18 | 192 | 3.2 | 8.0 | 0.00 | 0.00 | 0.00 | 81 | 1008.7 |
| 20260507111603 | 18 | 232 | 1.6 | 8.0 | 0.00 | 0.00 | 0.00 | 81 | 1008.6 |
| 20260507110101 | 18 | 204 | 3.2 | 9.7 | 0.00 | 0.00 | 0.00 | 81 | 1008.7 |
| 20260507104600 | 18 | 207 | 3.2 | 9.7 | 0.00 | 0.00 | 0.00 | 81 | 1008.4 |
| 20260507103059 | 18 | 225 | 3.2 | 6.4 | 0.00 | 0.00 | 0.00 | 81 | 1008.5 |
| 20260507101612 | 18 | 205 | 3.2 | 9.7 | 0.00 | 0.00 | 0.00 | 81 | 1008.3 |
| 20260507094605 | 18 | 187 | 4.8 | 8.0 | 0.00 | 0.00 | 0.00 | 81 | 1008.2 |
| 20260507093057 | 18 | 232 | 3.2 | 11.3 | 0.00 | 0.00 | 0.00 | 81 | 1008.4 |
| 20260507091557 | 18 | 183 | 3.2 | 11.3 | 0.00 | 0.00 | 0.00 | 81 | 1008.3 |
| 20260507090100 | 18 | 184 | 3.2 | 6.4 | 0.00 | 0.00 | 0.00 | 81 | 1008.4 |
| 20260507084601 | 18 | 195 | 0.0 | 11.3 | 0.00 | 0.00 | 0.00 | 81 | 1008.7 |
| 20260507083055 | 18 | 213 | 1.6 | 9.7 | 0.00 | 0.00 | 0.00 | 81 | 1008.7 |
| 20260507081554 | 18 | 196 | 3.2 | 9.7 | 0.00 | 0.00 | 0.00 | 81 | 1009.2 |
| 20260507080114 | 18 | 214 | 0.0 | 4.8 | 0.00 | 0.00 | 0.00 | 81 | 1009.0 |
| 20260507074551 | 18 | 194 | 0.0 | 3.2 | 0.00 | 0.00 | 0.00 | 80 | 1009.1 |
| 20260507073055 | 18 | 194 | 1.6 | 6.4 | 0.00 | 0.00 | 0.00 | 80 | 1009.3 |
| 20260507071549 | 18 | 190 | 0.0 | 4.8 | 0.00 | 0.00 | 0.00 | 80 | 1009.1 |
| 20260507070048 | 18 | 185 | 0.0 | 4.8 | 0.00 | 0.00 | 0.00 | 80 | 1009.6 |